Regional Weather Roundup
Issued by NWS

Home | Current Version | Previous Version | Text Only | Print | Product List | Glossary Off
Versions: 1 2 3 4 5 6 7 8 9 10 11 12 13 14 15 16 17 18 19 20 21 22 23 24 25 26 27 28 29 30 31 32 33 34 35 36 37 38 39 40 41 42 43 44 45 46 47 48 49 50

000
ASUS45 KSLC 281210
RWRUT

UTAH REGIONAL WEATHER ROUNDUP
NATIONAL WEATHER SERVICE SALT LAKE CITY UT
500 AM MST SUN DEC 28 2014

UTZ001>011-023>025-281300-

NORTHERN UTAH

CITY           SKY/WX    TMP DP  RH WIND       PRES   REMARKS
BRIGHAM CITY   CLOUDY    29  14  53 S13       30.10F WCI  19
HILL AFB       FLURRIES  25  16  68 S6        30.10S WCI  18
LOGAN          CLOUDY    28  14  55 S8        30.07F WCI  20
OGDEN          FLURRIES  26  15  63 S7        30.11F WCI  18
PROVO AIRPORT  CLOUDY    23  14  68 S6        30.15F WCI  16
SALT LAKE CITY CLOUDY    26  16  65 SE12      30.10F WCI  16
VERNAL         MOCLDY    13   8  81 CALM      30.13F
WENDOVER       MOCLDY    21  16  79 N3        30.10F
HEBER CITY     CLOUDY    14  10  85 CALM      30.09F
WEST JORDAN    CLOUDY    25  18  74 S18G24    30.11F WCI  11

$$

UTZ012>022-026-027-281300-

SOUTHERN/CENTRAL UTAH

CITY           SKY/WX    TMP DP  RH WIND       PRES   REMARKS
BLANDING       CLOUDY    18  12  76 CALM      30.25F
BRYCE CANYON   CLEAR      1  -4  79 W7        30.11F WCI -12
CEDAR CITY     CLOUDY    14   8  77 E5        30.16F WCI   6
DELTA          CLOUDY    20  17  84 NE6       30.14F WCI  13
MILFORD        CLOUDY    21  12  68 SW21      30.14F WCI   5
MOAB/CYNLANDS  PTCLDY    18  13  80 E5        30.18F WCI  11
PRICE          PTCLDY    18   6  59 E5        30.12F WCI  11
ST GEORGE      PTSUNNY   21   5  49 CALM      30.31S
KANAB          CLEAR     14  10  85 NE3       30.26F

$$

REGIONAL REPORTS     COLORADO/ARIZONA

CITY           SKY/WX    TMP DP  RH WIND       PRES   REMARKS
CRAIG, CO      CLOUDY    13   5  70 E5        30.08F WCI   5
GRAND JUNCTION CLOUDY    17  11  77 E5        30.19F WCI  10
RIFLE          CLOUDY    14   6  70 CALM      30.19F
MONTROSE       CLOUDY    15   8  73 SE7       30.20F WCI   5
CORTEZ         CLOUDY     7   3  84 NE3       30.20F
PAGE, AZ       CLEAR     24   8  50 CALM      30.21F
GRAND CANYON   PTCLDY     6   2  83 E3        30.20F
KINGMAN        PTCLDY    19  12  74 CALM      30.24F
FLAGSTAFF      PTCLDY     9   5  84 SW3       30.17F

$$

REGIONAL REPORTS    NEVADA/IDAHO/WYOMING

CITY           SKY/WX    TMP DP  RH WIND       PRES   REMARKS
LAS VEGAS, NV  MOCLDY    34  12  40 S10       30.24F WCI  26
ELY            CLOUDY    15   8  73 S10       30.15F WCI   2
ELKO           CLOUDY    30  16  56 S6        30.12F WCI  24
POCATELLO, ID  LGT SNOW  27  23  85 S16       29.97F FOG     WCI  15
BURLEY         SNOW      28  25  88 SW16      29.99S VSB 1/2 WCI  16
EVANSTON, WY   CLOUDY    17   7  64 SW14      29.98F WCI   3
ROCK SPRINGS   FLURRIES  14  10  84 SW12      29.97F WCI   0

$$



USA.gov is the U.S. government's official web portal to all federal, state and local government web resources and services.